Погода в Сунтаре

Погода в Сунтаре : погода сейчас, прогноз погоды и архив. Всё, что Вы хотите узнать о погоде в Сунтаре!

Хотите узнать прогноз погоды в Сунтаре? Тогда Вам сюда: Погода в Сунтаре

Поиск расширенной информации на нашем сайте:

Другие новости

Новости СМИ2

Главная страница сайта

Новости сайта

03.07.2017

Напоминаем, что на нашем специализированном сайте Метеоцентр.Азия вы можете получить высокодетализированные автоматические прогнозы погоды по пунктам России, СНГ и мира в авиационном формате (включающие направление и скорость ветра, видимость, явления погоды, количество и форму облачности, нижнюю и верхнюю границу облачности).

Рекомендуем: офисные блоки на выгодных условиях снять офис в бц K2 в Румянцево описание помещений на сайте

Погода в Сунтаре - сегодня

Время (UTC), дата Ветер
(°,м/с) 
Видим.   Явления Облачность Т
(°С)
Тd
(°С)
f(%) Тe
(°С)
Pmin
(гПа)
dP
(гПа)
Po
(мм)
O2
(г/м3)
Тmin Tmax R s Состояние
почвы
06 20.02.18 тихо ()   20000 м  слаб. снег  10/0 верхняя 
[Cs]
-23.4 -25.3 84 -23  1019.2  -0.5  750  332           
09 20.02.18 тихо ()   20000 м  слаб. снег  10/0 средняя, верхняя 
[Ac trans|Cs]
-25.2 -27.1 84 -25  1019.5  0.1  750  335           
15 20.02.18 тихо ()   20000 м    3/0 верхняя 
[Ci fib]
-34.1 -35.9 84 -34  1019.7  -0.6  750  347           
18 20.02.18 тихо ()   20000 м    ясно 
-37.4 -38.9 86 -37  1019.9  -0.1  750  352           
21 20.02.18 тихо ()   20000 м    ясно 
-39.2 -40.6 87 -39  1019.8  -0.2  750  355           
03 21.02.18 200 (Ю) 20000 м    3/0 верхняя 
[Ci fib]
-32.1 -34.4 80 -33  1019.1  -0.3  750  344           
06 21.02.18 170 (Ю) 20000 м    4/0 верхняя 
[Ci fib]
-24.2 -27.4 75 -27  1017.7  -0.7  749  333           
09 21.02.18 тихо ()   20000 м    ясно 
-24.4 -26.9 80 -24  1018  0.3  749  333           
12 21.02.18 200 (Ю) 20000 м    ясно 
-28.4 -30.2 84 -29  1018.3  -0.1  749  339    -22.9       
15 21.02.18 200 (Ю) 20000 м    ясно 
-28.3 -30 85 -32  1017.5  -0.8  749  338           
18 21.02.18 210 (ЮЗ) 20000 м    8/0 верхняя 
[Ci fib]
-29.6 -31.3 85 -30  1016.2  -0.7  748  340           
21 21.02.18 190 (Ю) 20000 м    8/0 верхняя 
[Ci fib]
-30.7 -32.4 85 -31  1016.7  -0.2  748  341           
03 22.02.18 170 (Ю) 20000 м    10/0 верхняя 
[Ci fib]
-25.8 -27.6 85 -29  1016.8  0.4  748  335           
06 22.02.18 160 (Ю) 20000 м    10/0 верхняя 
[Ci fib]
-21.4 -24.7 75 -24  1016.5  0.1  748  329           
09 22.02.18 тихо ()   20000 м  слаб. снег  10/0 верхняя 
[Cs]
-21 -23.5 80 -21  1017.4  0.9  749  329           
15 22.02.18 120 (ЮВ) 20000 м  в посл. час снег  10/0 верхняя 
[Cs]
-25.4 -27.2 85 -26  1019.2  0.3  750  335           
18 22.02.18 тихо ()   20000 м  {снег}  6/0 верхняя 
[Ci fib]
-28.7 -30.6 84 -29  1020.8  1.3  751  340           
21 22.02.18 тихо ()   20000 м    4/0 верхняя 
[Ci fib]
-31.4 -33 86 -31  1022.8  1.7  752  344           
03 23.02.18 тихо ()   20000 м    10/0 верхняя 
[Cs]
-27.4 -29.2 85 -27  1024.9  754  340  -33.4         
06 23.02.18 320 (СЗ) 20000 м  слаб. снег  10/0 верхняя 
[Cs]
-20.7 -22.6 85 -21  1025.2  0.8  755  331           
09 23.02.18 тихо ()   20000 м  {снег}  4/0 верхняя 
[Ci fib]
-19 -20.9 85 -19  1026.6  1.5  756  329           
15 23.02.18 040 (СВ) 20000 м    4/0 верхняя 
[Ci fib]
-30.9 -32.6 85 -32  1029.8  1.2  758  346           
18 23.02.18 020 (С) 20000 м    3/0 верхняя 
[Ci fib]
-34 -35.6 86 -35  1030.5  0.5  758  351           
21 23.02.18 тихо ()   20000 м    3/0 верхняя 
[Ci fib]
-34.9 -35.9 91 -35  1031.1  0.5  758  352           
03 24.02.18 310 (СЗ) 20000 м    10/0 верхняя 
[Ci fib]
-29.6 -31.3 85 -30  1031.1  0.1  759  345           
Время (UTC), дата Ветер
(°,м/с) 
Видим.   Явления Облачность Т
(°С)
Тd
(°С)
f(%) Тe
(°С)
Pmin
(гПа)
dP
(гПа)
Po
(мм)
O2
(г/м3)
Тmin Tmax R s Состояние
почвы

Для получения пояснительной информации подведите курсор к названию столбца.

ПОГОДА в Сунтаре - архив

Всё, что Вы хотите узнать о погоде в Сунтаре - удобно и подробно!

Выберите нужную дату (начиная с 1 января 2015* года) и нажмите кнопку "Найти".
Будут отображены архивные сводки погоды по пункту Сунтар, начиная с указанной даты.


Отображать данные в формате CSV (для использования в таблицах Excel)


Внимание! Наш архив погоды предназначен исключительно для личного некоммерческого использования в познавательных целях. Если Вам необходимы официальные справки о состоянии погоды (для производственных, юридических, коммерческих и т.п. целей), обращайтесь в органы Росгидромета.

*Примечание: данная дата относится к архиву по метеостанциям СССР (Россия, СНГ, Балтия).
Архив по метеостанциям Зарубежной Европы и Азии (кроме Китая) хранится 10 дней, по другим регионам земного шара (Китай, Африка, Америка, Австралия, Океания) - 1 день.

Сунтар - район местоположения метеостанции


Название, широта, долгота, высота метеостанции:
Сунтар 62.2°ш. 117.6°д. 133 м над ур. моря [Российская Федерация]

Дополнительная информация

В oтличие oт бoльшинства пoгoдных сайтoв мы публикуем пoдрoбную метеoинфoрмацию в детальнoм прoфессиoнальнoм фoрмате.

Характеристики температуры и влажнoсти вoздуха измеряются на высoте 2 м в тени вдали oт зданий и деревьев.
Скoрoсть ветра измеряется на высoте 10 м (на урoвне рoста челoвека скoрoсть ветра ниже в 1.5-2 раза). Если метеoстанция нахoдится в гoрoде или в лесу, тo скoрoсть ветра занижена на 2-4 м/с пo сравнению с oткрытым местoм. Скoрoсть ветра над акватoриями крупных рек и oзёр, а также на вершинах хoлмoв на 2-5 м/с выше, чем в oбычных услoвиях.
Атмoсфернoе давление в разных тoчках местнoсти мoжет значительнo oтличаться oт давления на метеoстанции, в зависимoсти oт услoвий рельефа (при пoдъёме на 10 м давление пoнижается примернo на 1 мм рт.ст.).